Date String (YYYY-MM-DD hh:mm:ss) UTC,Instrument flags,Ambient pressure (hPa),Sample flow (lpm),Bypass flow (lpm),Sample temperature (°C),Ambient temperature (°C),ASC tube jacket temperature (°C),LED temperature (°C),Box temperature (°C),Sample RH (%),Mass concentration (μg/m³),Mass concentration (μg/m³)
DateTimeUTC,F1_M11,P_M11,Q1_M11,Q2_M11,T1_M11,T2_M11,T3_M11,T4_M11,T5_M11,U1_M11,X0_M11,X2_M11
2021-08-17 12:00:00,,0824.9,4.99,0.00,30.0,29.2,00.0,39.0,31.9,17.2,0034.13,0023.44
2021-08-17 12:01:00,,0824.9,5.01,0.00,30.1,29.2,00.0,39.1,31.9,17.2,0034.01,0023.43
2021-08-17 12:02:00,,0825.0,5.01,0.00,30.1,29.2,00.0,39.1,31.9,17.4,0033.94,0023.42
2021-08-17 12:03:00,,0824.9,4.99,0.00,30.1,29.3,00.0,39.1,32.0,17.4,0033.99,0023.44
2021-08-17 12:04:00,,0824.9,5.01,0.00,30.1,29.3,00.0,39.1,32.0,17.4,0034.26,0023.47
2021-08-17 12:05:00,,0824.9,5.00,0.00,30.1,29.3,00.0,39.1,32.0,17.4,0034.11,0023.46
2021-08-17 12:06:00,,0824.9,5.00,0.00,30.1,28.8,00.0,39.2,31.8,17.4,0032.89,0023.39
2021-08-17 12:07:00,,0824.9,5.00,0.00,30.0,26.9,00.0,39.1,31.3,17.5,0032.58,0023.37
2021-08-17 12:08:00,,0824.9,5.00,0.00,29.9,26.5,00.0,39.1,31.1,17.7,0033.08,0023.35
2021-08-17 12:09:00,,0825.0,5.00,0.00,29.8,26.8,00.0,39.1,31.2,17.7,0033.09,0023.29
2021-08-17 12:10:00,,0825.0,5.00,0.00,29.7,27.2,00.0,39.0,31.3,17.6,0032.47,0023.24
2021-08-17 12:11:00,,0825.1,5.00,0.00,29.7,27.5,00.0,39.0,31.3,17.8,0032.40,0023.18
2021-08-17 12:12:00,,0825.1,5.00,0.00,29.7,27.8,00.0,39.0,31.4,17.7,0032.44,0023.10
2021-08-17 12:13:00,,0825.1,4.99,0.00,29.7,28.0,00.0,38.9,31.4,17.6,0032.21,0023.04
2021-08-17 12:14:00,,0825.2,5.00,0.00,29.8,28.2,00.0,38.9,31.5,17.7,0032.01,0022.99
2021-08-17 12:15:00,,0825.1,5.01,0.00,29.8,28.4,00.0,38.9,31.5,17.7,0032.08,0022.91
2021-08-17 12:16:00,,0825.1,5.00,0.00,29.8,28.5,00.0,38.9,31.6,17.5,0031.97,0022.87
2021-08-17 12:17:00,,0825.2,5.01,0.00,29.8,28.6,00.0,38.9,31.6,17.5,0031.95,0022.81
2021-08-17 12:18:00,,0825.2,4.99,0.00,29.8,28.7,00.0,38.9,31.7,17.6,0032.01,0022.68
2021-08-17 12:19:00,,0825.1,5.01,0.00,29.9,28.8,00.0,39.0,31.7,17.7,0031.62,0022.61
2021-08-17 12:20:00,,0825.2,4.99,0.00,29.9,28.9,00.0,39.0,31.7,17.8,0030.88,0022.62
2021-08-17 12:21:00,,0825.2,5.02,0.00,29.9,28.9,00.0,39.0,31.8,17.8,0030.75,0022.70
2021-08-17 12:22:00,,0825.2,5.00,0.00,30.0,29.0,00.0,39.0,31.8,17.6,0030.64,0022.68
2021-08-17 12:23:00,,0825.2,4.99,0.00,30.0,29.0,00.0,39.0,31.8,17.6,0030.50,0022.71
2021-08-17 12:24:00,,0825.2,5.00,0.00,30.0,29.1,00.0,39.0,31.8,17.6,0030.95,0022.79
2021-08-17 12:25:00,,0825.2,4.99,0.00,30.0,29.1,00.0,39.0,31.9,17.5,0031.13,0022.87
2021-08-17 12:26:00,,0825.2,5.00,0.00,30.0,29.2,00.0,39.1,31.9,17.4,0031.19,0022.98
2021-08-17 12:27:00,,0825.2,5.02,0.00,30.1,29.2,00.0,39.1,31.9,17.5,0031.08,0022.95
2021-08-17 12:28:00,,0825.2,4.99,0.00,30.1,29.2,00.0,39.1,32.0,17.5,0031.22,0022.99
2021-08-17 12:29:00,,0825.2,5.01,0.00,30.1,29.3,00.0,39.1,32.0,17.5,0031.26,0023.13
2021-08-17 12:30:00,,0825.2,5.00,0.00,30.1,28.8,00.0,39.1,31.8,17.4,0031.03,0023.18
2021-08-17 12:31:00,,0825.2,4.98,0.00,30.0,27.0,00.0,39.1,31.4,17.6,0031.32,0023.20
2021-08-17 12:32:00,,0825.2,4.99,0.00,29.9,26.6,00.0,39.1,31.3,17.7,0031.33,0023.18
2021-08-17 12:33:00,,0825.1,5.00,0.00,29.8,26.9,00.0,39.1,31.3,17.8,0031.75,0023.21
2021-08-17 12:34:00,,0825.2,5.02,0.00,29.8,27.3,00.0,39.0,31.3,17.8,0032.13,0023.24
2021-08-17 12:35:00,,0825.2,4.99,0.00,29.7,27.6,00.0,39.0,31.4,17.9,0031.93,0023.18
2021-08-17 12:36:00,,0825.2,5.00,0.00,29.7,27.9,00.0,39.0,31.4,17.9,0032.03,0023.14
2021-08-17 12:37:00,,0825.2,4.98,0.00,29.8,28.1,00.0,38.9,31.5,17.9,0032.47,0023.13
2021-08-17 12:38:00,,0825.2,5.00,0.00,29.8,28.3,00.0,38.9,31.5,17.8,0032.76,0023.18
2021-08-17 12:39:00,,0825.2,5.02,0.00,29.8,28.4,00.0,38.9,31.6,17.8,0033.03,0023.19
2021-08-17 12:40:00,,0825.2,5.00,0.00,29.8,28.6,00.0,38.9,31.6,17.8,0034.09,0023.14
2021-08-17 12:41:00,,0825.2,5.01,0.00,29.9,28.7,00.0,39.0,31.6,17.8,0034.32,0023.10
2021-08-17 12:42:00,,0825.3,4.99,0.00,29.9,28.8,00.0,39.0,31.7,17.8,0034.09,0023.10
2021-08-17 12:43:00,,0825.2,5.01,0.00,29.9,28.8,00.0,39.0,31.7,17.8,0034.09,0023.08
2021-08-17 12:44:00,,0825.3,5.01,0.00,29.9,28.9,00.0,39.0,31.8,17.7,0033.56,0023.07
2021-08-17 12:45:00,,0825.3,4.99,0.00,30.0,29.0,00.0,39.0,31.8,17.7,0033.15,0023.05
2021-08-17 12:46:00,,0825.3,5.00,0.00,30.0,29.0,00.0,39.0,31.8,17.7,0033.41,0023.10
2021-08-17 12:47:00,,0825.3,5.01,0.00,30.0,29.1,00.0,39.0,31.8,17.7,0033.70,0023.16
2021-08-17 12:48:00,,0825.3,4.98,0.00,30.0,29.1,00.0,39.1,31.9,17.6,0033.47,0023.23
2021-08-17 12:49:00,,0825.3,5.01,0.00,30.1,29.2,00.0,39.1,31.9,17.7,0034.03,0023.28
2021-08-17 12:50:00,,0825.3,4.99,0.00,30.1,29.2,00.0,39.1,31.9,17.6,0034.81,0023.35
2021-08-17 12:51:00,,0825.3,5.02,0.00,30.1,29.1,00.0,39.1,31.9,17.7,0034.13,0023.37
2021-08-17 12:52:00,,0825.3,4.99,0.00,30.1,27.5,00.0,39.1,31.5,17.7,0034.62,0023.46
2021-08-17 12:53:00,,0825.3,5.00,0.00,29.8,25.8,00.0,39.0,30.9,17.9,0035.11,0023.50
2021-08-17 12:54:00,,0825.3,5.02,0.00,29.7,25.8,00.0,39.0,30.9,18.2,0035.63,0023.55
2021-08-17 12:55:00,,0825.3,5.00,0.00,29.6,26.3,00.0,38.9,31.0,18.3,0035.89,0023.56
2021-08-17 12:56:00,,0825.3,4.99,0.00,29.6,26.7,00.0,38.9,31.1,18.3,0036.64,0023.58
2021-08-17 12:57:00,,0825.3,4.99,0.00,29.5,27.1,00.0,38.9,31.2,18.2,0036.02,0023.58
2021-08-17 12:58:00,,0825.3,5.00,0.00,29.6,27.5,00.0,38.8,31.2,18.3,0035.47,0023.52
2021-08-17 12:59:00,,0825.2,5.00,0.00,29.6,27.7,00.0,38.8,31.3,18.4,0035.12,0023.46
